Flag for Lithuania Weather past 2 weeks in Kaunas, Lithuania

Now
66 °F

Sunny.


Feels Like: 66 °F
Forecast: 43 / 74 °F
Wind: 8 mph from East

Location: Kaunas


UV Index: 3 (Moderate)

Visibility: 10 mi


Pressure: 30.01 "Hg

Humidity: 32%

Dew point: 36 °F

Location of KaunasLocation

Historic Weather in Kaunas

°F

Kaunas temperature yesterday

Maximum temperature yesterday: 73 °F (at 3:50 PM)
Minimum temperature yesterday: 43 °F (at 5:50 AM)
Average temperature yesterday: 59 °F

Past Weeks' High & Low Weather Summary

 TemperatureHumidityPressure
High73 °F (Apr 20, 3:50 PM)94% (Apr 8, 1:20 AM)30.36 "Hg (Apr 8, 1:20 AM)
Low25 °F (Apr 17, 4:50 AM)15% (Apr 6, 3:20 PM)29.56 "Hg (Apr 14, 1:50 PM)
Average47 °F63%29.97 "Hg
* Reported Apr 6 10:20 AM — Apr 21 10:50 AM, Kaunas, Weather by CustomWeather, © 2014

Note: Actual official high and low records may vary slightly from our data, if they occured in-between our weather recording intervals... More about our weather records

Advertising

Historic Weather Conditions — Data for Previous 24 hours

 ConditionsComfort  
Time TempWeatherWind HumidityBarometerVisibility
10:50 AM
Apr 21
64 °FPassing clouds.9 mph34%30.01 "HgN/A
10:20 AM63 °FPassing clouds.8 mph37%30.01 "HgN/A
9:50 AM59 °FPassing clouds.7 mph45%30.01 "HgN/A
9:20 AM59 °FSunny.8 mph45%30.01 "Hg10 mi
8:50 AM55 °FSunny.8 mph51%30.01 "Hg10 mi
8:20 AM54 °FPassing clouds.5 mph54%30.01 "HgN/A
7:50 AM50 °FPassing clouds.5 mph62%30.01 "HgN/A
7:20 AM46 °FSunny.1 mph71%30.01 "Hg10 mi
6:50 AM43 °FClear.2 mph71%30.01 "Hg10 mi
6:20 AM43 °FClear.No wind71%30.01 "Hg10 mi
5:50 AM46 °FClear.2 mph62%30.01 "Hg10 mi
5:20 AM48 °FPassing clouds.5 mph58%30.01 "HgN/A
4:50 AM46 °FClear.6 mph62%30.01 "Hg10 mi
4:20 AM48 °FClear.6 mph62%30.01 "Hg10 mi
3:50 AM48 °FClear.5 mph62%30.01 "Hg10 mi
3:20 AM48 °FCool.6 mph62%30.01 "HgN/A
2:50 AM48 °FCool.6 mph62%30.04 "HgN/A
2:20 AM50 °FCool.6 mph58%30.04 "HgN/A
1:50 AM48 °FCool.7 mph62%30.04 "HgN/A
1:20 AM50 °FCool.7 mph58%30.04 "HgN/A
12:50 AM50 °FCool.7 mph58%30.04 "HgN/A
12:20 AM52 °FCool.8 mph54%30.04 "HgN/A
11:50 PM
Apr 20
54 °FClear.7 mph51%30.04 "Hg10 mi
11:20 PM54 °FClear.7 mph51%30.04 "Hg10 mi
10:50 PM55 °FClear.7 mph47%30.04 "Hg10 mi
10:20 PM59 °FClear.8 mph42%30.04 "Hg10 mi
9:50 PM59 °FPassing clouds.7 mph42%30.04 "HgN/A
9:20 PM61 °FSunny.8 mph39%30.01 "Hg10 mi
8:50 PM64 °FSunny.7 mph32%30.01 "Hg10 mi
8:20 PM66 °FSunny.8 mph30%30.01 "Hg10 mi
7:50 PM68 °FSunny.8 mph28%30.01 "Hg10 mi
7:20 PM68 °FSunny.8 mph28%30.01 "Hg10 mi
6:50 PM70 °FPassing clouds.9 mph27%30.01 "HgN/A
6:20 PM70 °FSunny.14 mph27%30.01 "Hg10 mi
5:50 PM70 °FSunny.12 mph25%30.01 "Hg10 mi
5:20 PM72 °FPassing clouds.13 mph23%30.04 "HgN/A
4:50 PM72 °FPassing clouds.12 mph22%30.04 "HgN/A
4:20 PM72 °FPassing clouds.9 mph22%30.04 "HgN/A
3:50 PM73 °FPassing clouds.13 mph20%30.04 "HgN/A
3:20 PM72 °FPassing clouds.14 mph20%30.04 "HgN/A
2:50 PM72 °FPassing clouds.14 mph22%30.07 "HgN/A
2:20 PM70 °FPassing clouds.15 mph21%30.07 "HgN/A
1:50 PM72 °FPassing clouds.13 mph22%30.07 "HgN/A
1:20 PM72 °FPassing clouds.15 mph22%30.07 "HgN/A
12:50 PM72 °FSunny.14 mph23%30.09 "Hg10 mi
12:20 PM70 °FPassing clouds.14 mph25%30.09 "HgN/A
Weather by CustomWeather, © 2014

See weather overview